CZ-6A DEB, 54400

Orbit data source: Space-Track

CZ-6A DEB, 54400 is space debris in SSO originally from a launch on Fri, 11 Nov 2022 UTC launched from the Taiyaun Space Center, China (TSC). Debris objects in space refer to the collection of defunct objects orbiting the Earth. Examples of debris include non-operational satellites, rocket bodies, and fragments generated from explosions, collisions, or faulty payload assembly.

Loading next visibility...
Identifier
54400, 2022-151DY
Orbit
SSO
Country
Flag of CNCN / PRC
Related business
Manufacturer
SAST
Mission
Spacecraft
Bus & Motor
Unknown
Mass
Unknown
Launch date (UTC)
2022-11-11 (4 years ago)
Launch vehicle
Unknown
Launch site
Taiyaun Space Center, China (TSC)
Object type
Payload
Rocket body
Debris
Shape & HBR
Unknown shape, 0.3 m
Radar Cross Section
Medium (>0.1 m² and <1 m²)

Expand to show TLE details & history
Last TLE update: 2 days ago

TLE from 2 days ago
0 CZ-6A DEB
1 54400U 22151DY  26171.45057450  .00001854  00000-0  35901-3 0  9990
2 54400  98.5771 239.7298 0120055 225.8325 133.2958 14.60134798190972
Epoch: 2026-06-20T10:48Z
TLE epoch observation values (Epoch: 2026-06-20T10:48:49.636Z)
Latitude
-0.00004°
Longitude
168.85797°
Altitude
754.472 km
Speed
7.446 km/s
True Right ascension
15h 58m 55s
True Declination
0° 00' 00"
Sunlit
Object was in full shadow at epoch
Visualization orbit readout
Latitude
Unknown
Longitude
Unknown
Altitude
Unknown
Speed
Unknown
Apparent Right ascension
Unknown
Apparent Declination
Unknown
Sunlit
N/A
Visualization observer readout
Local Sidereal Time
21:56:20
Azimuth
Unknown
Elevation
Unknown
Doppler factor
Unknown
Orbital elements
Apogee altitude
774.691 km
Perigee altitude
604.982 km
Semi-major axis
7,067.974 km
Eccentricity
0.01201
Inclination
98.5771°
RAAN
239.7298°
Arg. of periapsis
225.8325°
True anomaly
134.28683°
Mean anomaly
133.2958°
Eccentric anomaly
133.79234°
Mean motion
3.65259 °/min
Orbital period
98.56 mins
BSTAR
0.00035901
Loading maneuver chart data...
Computing Atmospheric mass density...
Loading historical data...
Loading historical data...
Loading historical data...
Loading historical data...
Loading historical data...
Loading historical data...
Loading historical data...

Documentation

Showing up to 5 results
|